Location: Bannatyne
(13.0833°N, 59.5333°W)
Time: 07:32:50
(UTC+00:00)

Envisat - Pass Details

Date: 19 June 2021
Orbit: 764 x 766 km, 98.2° (Epoch: 03 August)

Event Time Altitude Azimuth Distance (km) Brightness Sun altitude
Rises 08:12:51 0° 35° (NE) 3,221 7.4 -18.1°
Reaches altitude 10° 08:15:42 10° 52° (NE) 2,294 6.7 -17.5°
Maximum altitude 08:19:25 21° 99° (E) 1,679 5.4 -16.7°
Drops below altitude 10° 08:23:08 10° 147° (SSE) 2,292 5.5 -16.0°
Sets 08:25:58 0° 163° (SSE) 3,217 6.1 -15.4°
